Terminal Aerodrome Forecast
Issued by NWS

Home | Current Version | Previous Version | Graphics & Text | Print | Product List | Glossary On
Versions: 1 2 3 4 5 6 7 8 9 10 11 12 13 14 15 16 17 18 19 20 21 22 23 24 25 26 27 28 29
000
FTUS43 KABR 110106 AAB
TAFPIR
TAF AMD
KPIR 110106Z 1101/1124 06013KT 6SM -SN OVC008
     FM110400 07011KT P6SM -SN OVC008
     FM110800 02008KT P6SM -SN OVC010
     FM111100 34008KT P6SM BKN015
     FM111700 30012KT P6SM BKN035=

USA.gov is the U.S. government's official web portal to all federal, state and local government web resources and services.